Regional Weather Roundup
Issued by NWS

Home | Current Version | Previous Version | Graphics & Text | Print | Product List | Glossary On
Versions: 1 2 3 4 5 6 7 8 9 10 11 12 13 14 15 16 17 18 19 20 21 22 23 24 25 26 27 28 29 30 31 32 33 34 35 36 37 38 39 40 41 42 43 44 45 46 47 48 49 50
000
ASUS45 KTFX 170704
RWRMT
MONTANA HOURLY WEATHER ROUNDUP
NATIONAL WEATHER SERVICE GREAT FALLS MT
104 AM MDT THU APR 17 2014

NOTE: "FAIR" INDICATES FEW OR NO CLOUDS BELOW 12000 FEET WITH NO
SIGNIFICANT WEATHER AND/OR OBSTRUCTIONS TO VISIBILITY.

* THESE STATIONS ARE NOT UNDER NWS QUALITY CONTROL. THEY DO NOT
   REPORT WEATHER SUCH AS PRECIPITATION OR FOG.

MTZ001>007-043-170800-
WEST OF THE DIVIDE
CITY           SKY/WX    TMP DP  RH WIND       PRES   REMARKS
KALISPELL      CLOUDY    43  34  71 S8        29.95S
MISSOULA       CLOUDY    43  32  65 CALM      29.99S
BUTTE          CLOUDY    34  23  64 SE5       29.99S WCI  29
MULLAN PASS    CLOUDY    30  30 100 VRB5      29.95S WCI  25
* ESSEX        N/A       34  32  92 SE1        N/A
* LINCOLN      N/A       32  29  89 N/A        N/A
* LOOKOUT PASS N/A       36  35  96 S1         N/A
* POLSON       N/A       40  33  76 SE1        N/A
* SEELEY LAKE  N/A       35  31  85 SE2        N/A
* THOMP F APT  CLOUDY    33  12  42 N1G7       N/A
* YAAK HILL    N/A       44  35  71 E2         N/A
$$

MTZ008-052>055-170800-
SOUTHWEST MONTANA
CITY           SKY/WX    TMP DP  RH WIND       PRES   REMARKS
BOZEMAN        CLOUDY    36  28  73 SE7       29.99S WCI  30
DILLON         MOCLDY    37  18  46 S5        29.98S WCI  33
W YELLOWSTONE  N/A       28  20  72 E1         N/A
* THREE FORKS  CLOUDY    36  25  64 N/A        N/A
* BOULDER HILL N/A       35  21  57 SW6        N/A   WCI  30
* MONIDA PASS  N/A       29  15  56 SW3        N/A
* RAYNOLDS PAS N/A       28  10  47 SE1        N/A
* WHITEHALL    N/A       37  21  52 W2G7       N/A
* WISE RIVER   N/A       33  22  64 S2         N/A
$$

MTZ009>010-012-014-046-048-049-054-170800-
EAST SLOPES AND CENTRAL MONTANA
CITY           SKY/WX    TMP DP  RH WIND       PRES   REMARKS
CUT BANK       PTCLDY    32  30  92 SE9       29.90F WCI  24
GREAT FALLS    PTCLDY    34  28  79 S9        29.93F WCI  27
HELENA         CLOUDY    39  28  65 CALM      29.97R
MALMSTROM AFB  PTCLDY    34  28  79 S10       29.91F WCI  26
* CONRAD       PTCLDY    34  32  92 N/A        N/A
* DEARBORN     N/A       36  31  82 S4         N/A
* EAST GLACIER N/A       35  30  82 W17        N/A   WCI  25
* MONARCH      N/A       28  25  89 SE2        N/A
* PENDROY      N/A       31  31 100 SE2        N/A
* ROGERS PASS  N/A       35  25  67 E5G17      N/A   WCI  31
* SAINT MARY   N/A       36  30  79 S5G12      N/A   WCI  32
* SWEET GRASS  N/A       32  32 100 S19        N/A   WCI  20
$$

MTZ011-013-016-021-035-040-045-047-050-051-170800-
NORTH CENTRAL MONTANA
CITY           SKY/WX    TMP DP  RH WIND       PRES   REMARKS
HAVRE          CLOUDY    30  23  75 E15       29.99F WCI  19
LEWISTOWN      CLOUDY    32  30  92 SE5       29.98F WCI  27
* CHESTER      N/A       35  29  79 SE10G16    N/A   WCI  27
* DENTON       N/A       36  32  85 SE19G24    N/A   WCI  25
* GEYSER       N/A       28  27  96 SW6        N/A   WCI  21
* JUDITH GAP   N/A       32  31  96 SE11       N/A   WCI  23
* LOMA         N/A       38  33  82 NE14       N/A   WCI  30
$$

MTZ017>020-022>027-061-062-170800-
NORTHEAST MONTANA
CITY           SKY/WX    TMP DP  RH WIND       PRES   REMARKS
GLASGOW        CLEAR     25  19  78 E14       30.16R WCI  13
GLENDIVE       CLOUDY    28  21  75 E6        30.19F WCI  21
JORDAN         PTCLDY    30  21  69 E8        30.11F WCI  22
SIDNEY         CLOUDY    28  19  69 E7        30.24F WCI  21
WOLF POINT     CLOUDY    30  19  64 E12       30.21F WCI  20
* BEAVER HILL  N/A       27  20  75 E14G19     N/A   WCI  16
* CIRCLE       N/A       27  22  81 E5G10      N/A   WCI  21
* LINDSAY DVD  N/A       24  22  92 E11        N/A   WCI  13
* NAVAJO       N/A       24  20  85 SE11       N/A   WCI  13
* SACO         N/A       26  18  72 E16G22     N/A   WCI  13
$$

MTZ028>042-056>058-170800-
SOUTHCENTRAL AND SOUTHEAST MONTANA
CITY           SKY/WX    TMP DP  RH WIND       PRES   REMARKS
BAKER          CLOUDY    28  23  81 SE16      30.16S WCI  16
BILLINGS       MOCLDY    36  30  79 N5        30.03F WCI  32
LIVINGSTON     CLOUDY    36  32  85 E9        30.00S WCI  29
MILES CITY     CLOUDY    34  27  76 E7        30.12F WCI  28
* LAUREL APT   PTCLDY    36  21  54 N5         N/A   WCI  32
* ROUNDUP APT  MOCLDY    36  30  79 N/A        N/A
* HYSHAM       N/A       35  25  67 E6         N/A   WCI  30
* LAME DEER    N/A       32  26  79 SE4        N/A
* REED POINT   N/A       36  34  92 SE4        N/A
* ROSCOE HILL  N/A       31  25  78 SW2        N/A
$$

REGIONAL REPORTS...DAKOTAS
CITY           SKY/WX    TMP DP  RH WIND       PRES   REMARKS
WILLISTON      PTCLDY   N/A N/A N/A N/A       30.26F
DICKINSON      CLOUDY    27  21  78 E7        30.19F WCI  19
CROSBY         CLOUDY    25  16  69 E12       30.28F WCI  14
TIOGA          CLOUDY    25  25 100 E7        30.28F WCI  17
WATFORD CITY   CLOUDY    27  23  85 E3        30.23S
BISMARCK       CLOUDY    28  16  61 E9        30.29R WCI  19
GRAND FORKS    CLEAR     21  19  92 N6        30.28R WCI  13
FARGO          CLEAR     27  18  69 N6        30.26R WCI  20
BUFFALO SD     MOCLDY    28  25  89 SE10      30.10S WCI  19
RAPID CITY     CLOUDY    30  25  82 S9        30.17S WCI  22
$$

REGIONAL REPORTS...WYOMING/IDAHO/WASHINGTON
CITY           SKY/WX    TMP DP  RH WIND       PRES   REMARKS
GILLETTE       CLOUDY    34  30  85 SW6       30.08R WCI  29
SHERIDAN       PTCLDY    32  30  92 NE5       30.04F WCI  27
CODY           CLEAR     30  27  89 CALM      30.01F
YELLOWSTONE LA PTCLDY    25  18  75 CALM      30.03F
SALMON         PTCLDY    34  21  59 CALM      30.00R
MULLAN PASS    CLOUDY    30  30 100 VRB5      29.95S WCI  25
SPOKANE        MOCLDY    45  39  80 SE12      29.94S
$$

REGIONAL REPORTS...ALBERTA
CITY           SKY/WX    TMP DP  RH WIND       PRES   REMARKS
MEDICINE HAT   CLOUDY    36  30  79 SE16G25   29.96F WCI  26

$$




USA.gov is the U.S. government's official web portal to all federal, state and local government web resources and services.